Location: Capelle
(50.3413°N, 1.9974°E)
Time: 20:43:16
(UTC+00:00)

Meteor 2-15 Rocket - Pass Details

Date: 12 January 2026
Orbit: 939 x 956 km, 82.5° (Epoch: 15 February)

Event Time Altitude Azimuth Distance (km) Brightness Sun altitude
Rises 18:13:14 0° 351° (N) 3,648 7.5 -18.4°
Reaches altitude 10° 18:15:48 10° 355° (N) 2,697 6.7 -18.8°
Maximum altitude 18:21:55 61° 76° (ENE) 1,080 4.4 -19.8°
Drops below altitude 10° 18:27:57 10° 156° (SSE) 2,670 6.6 -20.7°
Sets 18:30:28 0° 160° (SSE) 3,608 7.4 -21.1°
